Date,TemperatureHighF,TemperatureAvgF,TemperatureLowF,DewpointHighF,DewpointAvgF,DewpointLowF,HumidityHigh,HumidityAvg,HumidityLow,PressureMaxIn,PressureMinIn,WindSpeedMaxMPH,WindSpeedAvgMPH,GustSpeedMaxMPH,PrecipitationSumIn
2013-5-1,93.1,72.8,60.5,68.7,62.1,53.5,100,74,31,29.50,29.37,13,2,13,0.00
2013-5-2,68.1,57.5,42.7,65.2,53.4,37.9,96,86,73,29.81,29.49,21,5,21,0.02
2013-5-3,68.6,51.5,40.9,38.2,27.7,5.5,84,50,12,29.80,29.60,19,6,19,0.04
2013-5-4,80.7,58.5,37.7,37.9,25.7,8.2,83,42,11,29.60,29.42,17,3,17,0.00
2013-5-5,71.7,55.3,40.0,43.0,37.8,31.6,88,56,28,29.69,29.54,18,3,18,0.00
2013-5-6,82.5,62.3,42.7,53.3,46.6,41.0,98,63,29,29.67,29.54,9,2,9,0.00
2013-5-7,96.4,72.7,56.0,59.6,49.2,22.4,95,56,11,29.64,29.49,6,1,6,0.01
2013-5-8,91.5,69.6,59.8,61.4,55.2,44.9,85,65,26,29.60,29.49,14,2,14,0.00
2013-5-9,77.8,69.0,64.0,70.2,64.8,55.1,100,87,62,29.58,29.37,11,2,11,0.19
2013-5-10,93.1,72.7,63.1,70.5,65.4,57.5,100,82,36,29.58,29.40,8,1,8,0.01
2013-5-11,85.0,71.7,59.1,65.1,51.8,37.2,94,58,23,29.70,29.51,14,3,14,0.00
2013-5-12,85.0,67.3,54.1,50.4,41.5,22.4,78,48,14,29.80,29.67,16,3,16,0.00
2013-5-13,91.5,69.1,49.7,50.2,39.9,17.3,82,46,11,29.84,29.70,10,2,10,0.00
2013-5-14,92.8,73.4,57.1,59.1,51.1,35.0,87,52,18,29.77,29.59,17,3,17,0.00
2013-5-15,72.1,68.5,65.8,71.7,65.4,59.3,100,90,71,29.67,29.41,11,3,11,0.50
2013-5-16,83.6,72.2,61.3,70.2,66.2,61.3,100,83,60,29.51,29.33,17,3,17,0.44
2013-5-17,95.3,79.6,71.2,72.6,70.3,67.2,98,77,44,29.51,29.36,13,3,13,0.00
2013-5-18,97.1,81.2,70.4,72.3,69.3,64.4,99,72,39,29.50,29.38,19,4,19,0.00
2013-5-19,97.1,80.4,70.4,70.1,66.3,58.9,93,67,33,29.45,29.30,16,4,16,0.00
2013-5-20,95.6,80.3,70.3,72.5,68.8,64.8,97,72,42,29.44,29.27,15,4,15,0.00
2013-5-21,92.8,77.2,65.4,73.9,69.1,63.2,100,79,45,29.42,29.21,16,4,16,0.04
2013-5-22,97.1,74.6,61.3,68.3,62.7,48.5,100,74,25,29.49,29.39,6,2,6,0.05
2013-5-23,96.0,79.8,69.7,74.0,70.0,66.3,100,76,44,29.61,29.46,7,2,7,0.00
2013-5-24,95.1,79.3,69.9,75.1,69.2,61.3,100,75,40,29.71,29.57,12,1,12,0.05
2013-5-25,94.2,78.2,68.3,72.3,67.1,62.4,94,72,42,29.71,29.61,10,2,10,0.00
2013-5-26,93.7,79.4,71.2,77.4,69.5,63.9,100,75,46,29.67,29.53,8,2,8,0.06
2013-5-27,95.1,79.4,68.1,72.0,66.4,58.2,100,70,34,29.60,29.40,16,3,16,0.00
2013-5-28,96.4,80.5,71.2,69.9,65.4,58.9,91,65,34,29.50,29.39,15,4,15,0.00
2013-5-29,92.6,79.2,73.3,70.5,68.2,65.1,87,71,44,29.44,29.33,14,4,14,0.00
2013-5-30,93.5,81.1,73.9,71.9,70.1,66.3,89,72,46,29.42,29.30,19,4,19,0.00
2013-5-31,98.9,83.6,76.0,74.6,71.3,64.6,92,70,37,29.44,29.30,18,4,18,0.00